OPS 4682 DEB, 13131

Orbit data source: Space-Track

OPS 4682 DEB, 13131 is space debris in LEO originally from a launch on Sat, 03 Apr 1965 UTC launched from the Air Force Western Test Range (AFWTR). Debris objects in space refer to the collection of defunct objects orbiting the Earth. Examples of debris include non-operational satellites, rocket bodies, and fragments generated from explosions, collisions, or faulty payload assembly.

Loading next visibility...
Identifier
13131, 1965-027H
Orbit
LEO
Country
Flag of USUS
Related business
Manufacturer
Unknown
Mission
Spacecraft
Bus & Motor
Unknown
Mass
Unknown
Launch date (UTC)
1965-04-03 (61 years ago)
Launch vehicle
Unknown
Launch site
Air Force Western Test Range (AFWTR)
Object type
Payload
Rocket body
Debris
Shape & HBR
Unknown shape, 0.1 m
Radar Cross Section
Small (<0.1 m²)

Expand to show TLE details & history
Last TLE update: 2 days ago

TLE from 2 days ago
0 OPS 4682 DEB
1 13131U 65027H   25291.42842888 -.00000340  00000-0 -11870-2 0  9990
2 13131  90.2385 348.2210 0028944 350.2394  68.6609 12.97934077599345
Epoch: 2025-10-18T10:16Z
TLE epoch observation values (Epoch: 2025-10-18T10:16:56.255Z)
Latitude
59.2971°
Longitude
166.4274°
Altitude
1,272.309 km
Speed
7.229 km/s
True Right ascension
23h 11m 17s
True Declination
59° 09' 22"
Sunlit
Object was in full shadow at epoch
Visualization orbit readout
Latitude
Unknown
Longitude
Unknown
Altitude
Unknown
Speed
Unknown
Apparent Right ascension
Unknown
Apparent Declination
Unknown
Sunlit
N/A
Visualization observer readout
Local Sidereal Time
11:38:22
Azimuth
Unknown
Elevation
Unknown
Doppler factor
Unknown
Orbital elements
Apogee altitude
1,289.451 km
Perigee altitude
1,245.193 km
Semi-major axis
7,645.459 km
Eccentricity
0.00289
Inclination
90.2385°
RAAN
348.221°
Arg. of periapsis
350.2394°
True anomaly
68.97024°
Mean anomaly
68.6609°
Eccentric anomaly
68.81553°
Mean motion
3.24667 °/min
Orbital period
110.88 mins
BSTAR
-0.001187
Loading maneuver chart data...
Computing Atmospheric mass density...
Loading historical data...
Loading historical data...
Loading historical data...
Loading historical data...
Loading historical data...
Loading historical data...
Loading historical data...

Documentation

Showing up to 5 results
|